www.pogodaiklimat.ru

Погода и климат >> Архив погоды >> Канада >> Нунавут >> Арвиат


ПОГОДА в Арвиате

  • Прогноз погоды в Арвиате
  • Монитор погоды в Арвиате

АРХИВ ПОГОДЫ в Арвиате

Время (UTC), дата Ветер
(напр.,м/с)
 
Видим.   Явления Облачность Т
(С)
Тd
(С)
f
(%)
Тe
(С)
Тes
(С)
Комфортность P
(гПа)
Po
(гПа)
Тmin
(С)
Tmax
(С)
R
(мм)
R24
(мм)
S
(см)
18 12.06 С 4 н/о н/о +6.9 +1.0 66 +4 +4 1014.0 1012.8 +0.2 +7.1
21 12.06 Ю 4 н/о н/о +5.0 +2.1 81 +1 +1 1013.7 1012.4
00 13.06 Ю 5 н/о н/о +3.9 +1.6 85 -1 -1 1012.7 1011.4 +0.2 +8.8
03 13.06 Ю 4 н/о н/о +1.8 +0.7 92 -3 -3 1012.0 1010.7
06 13.06 В 2 н/о н/о +0.9 +0.3 96 -2 -2 1011.5 1010.3 +0.2 +8.8
09 13.06 штиль 0 н/о н/о +0.5 +0.3 99 -1 -1 1011.4 1010.2
12 13.06 С 4 н/о н/о +2.5 +0.9 89 -3 -3 1011.7 1010.4 -0.0 +8.8
15 13.06 СВ 4 н/о н/о +3.9 +1.1 82 -1 -1 1011.9 1010.7
18 13.06 СВ 4 н/о н/о +4.8 +1.0 76 +1 +1 1012.4 1011.2 -0.0 +5.7
21 13.06 В 4 н/о н/о +5.3 +1.2 75 +1 +1 1013.0 1011.7
00 14.06 В 4 н/о н/о +4.7 +1.1 77 +1 +1 1013.4 1012.1 -0.0 +6.2
03 14.06 В 3 н/о н/о +1.9 +0.7 92 -3 -3 1013.9 1012.7
06 14.06 ЮВ 3 н/о н/о +0.2 +0.2 100 -4 -4 1014.6 1013.4 -0.0 +6.2
09 14.06 ЮВ 3 н/о н/о +0.5 +0.3 99 -4 -4 1015.7 1014.4
12 14.06 Ю 2 н/о н/о +2.6 +0.4 85 -1 -1 1016.8 1015.5 0.0 +6.2
15 14.06 Ю 3 н/о н/о +3.9 -0.2 75 0 0 1017.9 1016.6
18 14.06 Ю 4 н/о н/о +5.2 -0.1 69 +1 +1 1018.3 1017.0 0.0 +5.8
21 14.06 Ю 4 н/о н/о +5.6 0.0 67 +2 +2 1018.8 1017.5
00 15.06 Ю 4 н/о н/о +5.1 +0.7 73 +1 +1 1019.2 1018.0 0.0 +5.9
03 15.06 Ю 3 н/о н/о +2.8 +0.8 87 -1 -1 1019.8 1018.5
06 15.06 Ю 2 н/о н/о +0.9 +0.4 96 -3 -3 1020.1 1018.9 0.0 +5.9
09 15.06 штиль 0 н/о н/о +1.2 +1.0 99 -0 -0 1020.9 1019.7
12 15.06 В 2 н/о н/о +3.3 +1.1 85 +1 +1 1021.6 1020.3 +0.7 +5.9
15 15.06 В 3 н/о н/о +5.9 +1.1 71 +3 +3 1022.0 1020.8
18 15.06 ЮВ 3 н/о н/о +6.0 -0.3 64 +3 +3 1022.2 1020.9 +0.7 +6.6
21 15.06 В 5 н/о н/о +6.4 +1.2 69 +3 +3 1022.1 1020.8
00 16.06 ЮВ 3 н/о н/о +5.5 +0.8 72 +2 +2 1021.9 1020.6 +0.7 +7.2
03 16.06 В 2 н/о н/о +3.9 +2.1 88 +2 +2 1022.3 1021.0
06 16.06 В 3 н/о н/о +1.8 +1.7 99 -2 -2 1022.5 1021.2 +0.7 +7.2
09 16.06 ЮВ 3 н/о н/о +0.6 +0.6 100 -4 -4 1022.6 1021.4
12 16.06 ЮВ 3 н/о н/о -0.4 -0.4 100 -5 -5 1023.5 1022.2 -0.4 +7.2
15 16.06 Ю 2 н/о н/о +0.9 +0.9 100 -2 -2 1023.7 1022.4
18 16.06 ЮВ 4 н/о н/о +2.2 +1.2 93 -3 -3 1023.2 1021.9 -0.5 +2.2
21 16.06 ЮВ 5 н/о н/о +2.7 +1.8 94 -3 -3 1022.9 1021.6
00 17.06 Ю 5 н/о н/о +3.9 +2.5 91 -1 -1 1022.9 1021.6 -0.5 +4.7
03 17.06 Ю 4 н/о н/о +1.9 +1.3 96 -3 -3 1022.4 1021.1
06 17.06 Ю 4 н/о н/о +0.3 +0.3 100 -5 -5 1021.7 1020.4 -0.5 +4.7
09 17.06 Ю 4 н/о н/о -0.3 -0.3 100 -6 -6 1022.0 1020.8
12 17.06 Ю 4 н/о н/о +2.6 +1.8 94 -2 -2 1022.4 1021.2 -0.4 +4.7
15 17.06 Ю 5 н/о н/о +4.2 +2.4 88 -1 -1 1021.7 1020.4
18 17.06 Ю 5 н/о н/о +5.2 +2.9 85 +1 +1 1021.0 1019.7 -0.4 +5.7
21 17.06 Ю 6 н/о н/о +5.4 +2.9 84 +1 +1 1020.5 1019.2
00 18.06 Ю 6 н/о н/о +5.1 +2.9 86 0 0 1019.3 1018.0 -0.4 +6.4
03 18.06 Ю 5 н/о н/о +3.7 +2.9 95 -1 -1 1018.6 1017.3
06 18.06 Ю 5 н/о н/о +2.4 +1.9 96 -3 -3 1017.6 1016.4 -0.4 +6.4
09 18.06 Ю 4 н/о н/о +2.4 +1.9 96 -3 -3 1016.4 1015.2
12 18.06 Ю 6 н/о н/о +3.7 +2.3 91 -2 -2 1015.4 1014.1 +2.1 +6.4
15 18.06 Ю 7 н/о н/о +4.9 +2.5 84 -1 -1 1014.2 1013.0
18 18.06 Ю 7 н/о н/о +6.6 +3.8 82 +2 +2 1012.9 1011.7 +2.1 +7.0
21 18.06 Ю 7 н/о н/о +6.4 +4.0 85 +1 +1 1012.0 1010.7
00 19.06 Ю 6 н/о н/о +5.7 +3.8 88 +1 +1 1011.3 1010.0 +2.1 +7.1
03 19.06 Ю 5 н/о н/о +3.8 +2.6 92 -1 -1 1011.1 1009.8
06 19.06 Ю 3 н/о н/о +2.8 +2.0 94 -2 -2 1010.8 1009.6 +2.1 +7.1 21
09 19.06 Ю 4 н/о н/о +2.3 +1.8 96 -3 -3 1010.5 1009.3
12 19.06 Ю 4 н/о н/о +3.8 +2.1 89 -1 -1 1010.7 1009.5 +2.1 +7.1
15 19.06 Ю 5 н/о н/о +6.5 +3.4 81 +2 +2 1010.8 1009.6

 

Местоположение метеостанции Арвиат (Нунавут, Канада): широта 61.10 долгота -94.06 высота над уровнем моря 10 м.

В архиве по умолчанию представлена погода в Арвиате за последнюю неделю. Архивные данные за месяц целиком и за предыдущие месяцы, начиная с января 2011 года, Вы можете получить, выбрав интересующий диапазон дат из раскрывающегося списка и нажав кнопку "Ввод!".


*Определитесь, кто Вы:
робот инопланетянин человек

Внимание! Время в таблицах - всемирное. Для получения местного времени необходимо прибавить поправку, которая равна -6 ч.

Смотрите также архив погоды в соседних городах и на ближайших метеорологических станциях:

Погода в Аэропорту Арвиат (Нунавут, Канада) (1 км)
Погода в Ранкин-Инлете (Нунавут, Канада) (217 км)
Погода в Черчилле (Манитоба, Канада) (265 км)
Погода в Тадоул Лейк (Манитоба, Канада) (362 км)
Погода в Бейкер-Лейке (Нунавут, Канада) (370 км)
Погода в Бейкер Лейк (Нунавут, Канада) (372 км)
Погода в Ки Лейк 2 (Саскачеван, Канада) (462 км)
Погода в Гилламе (Манитоба, Канада) (530 км)
Погода в Глеичене (Альберта, Канада) (567 км)
Погода в Вейджер Бэй (Нунавут, Канада) (579 км)

Пояснения к столбцам:

Ветер - указаны скорость ветра в м/с - средняя за 10 мин, порывы в срок и между сроками (в фигурных скобках) и направление, откуда дует ветер: С - северный, СВ - северо-восточный, В - восточный, ЮВ - юго-восточный, Ю - южный, ЮЗ - юго-западный, З - западный, СЗ - северо-западный.
Видимость - горизонтальная дальность видимости в метрах или километрах. При видимости от 1 до 10 км при отсутствии осадков обычно наблюдается дымка, при ухудшении видимости до 1 км и менее - туман. В сухую погоду видимость может ухудшаться дымом, пылью или мглою.
Явления - указаны атмосферные явления, наблюдавшиеся в срок или в последний час перед сроком; фигурными скобками обозначены явления, наблюдавшиеся между сроками (за 1-3 часа до срока); квадратными скобками обозначены град или гололедные отложения с указанием их диаметра в мм.
Облачность - указаны через наклонную черту общая и нижняя облачность в баллах и высота нижней границы облаков в метрах; квадратными скобками обозначены формы облаков: Ci - перистые, Cs - перисто-слоистые, Cc - перисто-кучевые, Ac - высококучевые, As - высокослоистые, Sc - слоисто-кучевые, Ns - слоисто-дождевые, Cu - кучевые, Cb - кучево-дождевые. Подробнее классификацию облаков см. в Атласе облаков (PDF).
T - Температура воздуха - температура, измеренная на высоте 2 м над землей.
Td - Температура точки росы - температура, при понижении до которой содержащийся в воздухе водяной пар достигнет насыщения.
f - Относительная влажность воздуха - влажноcть воздуха, измеренная на высоте 2 м над землей.
Te - Эффективная температура - температура, которую ощущает одетый по сезону человек в тени. Характеристика душности погоды. При расчете учитывается влияние влажности воздуха и скорости ветра на теплоощущения человека.
Tes - Эффективная температура на солнце - температура, которую ощущает человек, с поправкой на солнечный нагрев. Характеристика знойности погоды. Зависит от высоты солнца над горизонтом, облачности и скорости ветра. Ночью, в пасмурную погоду, а также при ветре 12 м/с и более поправка равна нулю.
P - Атмосферное давление - приведенное к уровню моря атмосферное давление.
Po - Атмосферное давление - измеренное на уровне метеостанции атмосферное давление.
Tmin - Минимальная температура - минимум температуры воздуха на высоте 2 м над землей.
Tmax - Максимальная температура - максимум температуры воздуха на высоте 2 м над землей.
R - Количество осадков - Количество выпавших осадков за период времени, мм. При наведении курсора мыши на число - период времени, за который выпало указанное количество осадков.
R24 - Количество осадков - Количество выпавших осадков за 24 часа, мм.
S - Снежный покров - Высота снежного покрова, см. При наведении курсора мыши на число - состояние снежного покрова и степень покрытия местности в баллах.